CZ-6A DEB, 56642

Orbit data source: Space-Track

CZ-6A DEB, 56642 is space debris in SSO originally from a launch on Fri, 11 Nov 2022 UTC launched from the Taiyaun Space Center, China (TSC). Debris objects in space refer to the collection of defunct objects orbiting the Earth. Examples of debris include non-operational satellites, rocket bodies, and fragments generated from explosions, collisions, or faulty payload assembly.

Loading next visibility...
Identifier
56642, 2022-151AFS
Orbit
SSO
Country
Flag of CNCN / PRC
Related business
Manufacturer
SAST
Mission
Spacecraft
Bus & Motor
Unknown
Mass
Unknown
Launch date (UTC)
2022-11-11 (4 years ago)
Launch vehicle
Unknown
Launch site
Taiyaun Space Center, China (TSC)
Object type
Payload
Rocket body
Debris
Shape & HBR
Unknown shape, 0.1 m
Radar Cross Section
Small (<0.1 m²)

Expand to show TLE details & history
Last TLE update: 5 days ago

TLE from 5 days ago
0 CZ-6A DEB
1 56642U 22151AFS 26168.18896386  .00000398  00000-0  31429-3 0  9998
2 56642  98.9140 135.0033 0128613  86.5958 274.9905 13.93330450159926
Epoch: 2026-06-17T04:32Z
TLE epoch observation values (Epoch: 2026-06-17T04:32:06.477Z)
Latitude
-0.00002°
Longitude
161.52609°
Altitude
912.891 km
Speed
7.399 km/s
True Right ascension
09h 00m 00s
True Declination
0° 00' 00"
Sunlit
Object was in daylight at epoch
Visualization orbit readout
Latitude
Unknown
Longitude
Unknown
Altitude
Unknown
Speed
Unknown
Apparent Right ascension
Unknown
Apparent Declination
Unknown
Sunlit
N/A
Visualization observer readout
Local Sidereal Time
21:40:55
Azimuth
Unknown
Elevation
Unknown
Doppler factor
Unknown
Orbital elements
Apogee altitude
1,007.975 km
Perigee altitude
820.397 km
Semi-major axis
7,292.323 km
Eccentricity
0.01286
Inclination
98.914°
RAAN
135.0033°
Arg. of periapsis
86.5958°
True anomaly
273.5204°
Mean anomaly
274.9905°
Eccentric anomaly
274.25563°
Mean motion
3.48533 °/min
Orbital period
103.29 mins
BSTAR
0.00031429
Loading maneuver chart data...
Computing Atmospheric mass density...
Loading historical data...
Loading historical data...
Loading historical data...
Loading historical data...
Loading historical data...
Loading historical data...
Loading historical data...

Documentation

Showing up to 5 results
|